[[{"header":{"parameterUnit":"m.s-1","parameterCategory":1,"la1":30.2991,"la2":30.254,"lo1":-89.0895,"lo2":-89.0444,"dy":0.0017,"dx":0.0017,"nx":28,"ny":28,"refTime":"2024-05-23T21:00:00:Z","depth":0,"parameterNumber":2,"parameterNumberName":"U-component_of_WINDS"},"data":[0,0,0,0,0,0,0,0,0,0,0,0,0,0,0,0,0,0,0,0,0,0,0,0,0,0,0,0,0,0,0,0,0,0,0,0,0,0,0,0,0,0,0,0,0,0,0,0,0,0,0,0,0,0,0,0,0,0,1.8235,1.8236,0,1.8356,1.8357,1.8359,1.8354,1.8352,1.8351,1.8349,1.8473,1.8478,1.8483,0,0,0,0,0,0,0,0,0,0,0,0,0,1.8,1.8005,1.8235,1.8237,1.8238,1.8356,1.8357,1.8359,1.8354,1.8352,1.835,1.8348,1.8472,1.8478,1.8483,0,0,0,0,0,0,0,0,0,0,0,0,0,1.811,1.8006,1.8235,1.825,1.8253,1.8355,1.8357,1.8359,1.8355,1.8352,1.835,1.8347,1.847,1.8477,1.8484,1.858,0,0,1.8507,1.851,0,0,0,0,0,0,0,0,1.8104,1.8118,1.8246,1.8249,1.8252,1.8337,1.832,1.8433,1.8355,1.8316,1.8349,1.8346,1.843,1.8441,1.8469,1.8586,1.8591,1.8507,1.8512,1.8515,1.8517,0,0,0,0,0,0,0,1.8096,1.8113,1.8283,1.8248,1.8252,1.8251,1.8263,1.8341,1.8386,1.8319,1.8319,1.8334,1.8431,1.8462,1.8472,1.8593,1.8507,1.8514,1.8518,1.8521,1.8793,1.8796,0,0,0,0,0,0,1.8085,1.8107,1.8279,1.8286,1.817,1.8257,1.8271,1.8313,1.8385,1.8394,1.8336,1.8333,1.8451,1.8463,1.8476,1.8592,1.8515,1.8522,1.8526,1.879,1.8794,1.8797,0,0,0,0,0,0,1.808,1.8101,1.8274,1.8197,1.8219,1.8264,1.831,1.8316,1.8347,1.8397,1.8405,1.8359,1.8449,1.8466,1.8554,1.8596,1.8525,1.8532,1.8787,1.8791,1.8795,1.8825,0,0,0,0,0,0,1.8073,1.8099,1.8136,1.8198,1.8223,1.835,1.8313,1.832,1.8359,1.8357,1.8421,1.8429,1.8448,1.8543,1.8561,1.8605,1.8537,1.8783,1.8789,1.8794,1.882,1.883,1.8838,0,0,0,0,0,1.8065,1.814,1.8138,1.8158,1.827,1.8352,1.8367,1.8387,1.8363,1.84,1.8432,1.8427,1.8589,1.8552,1.8572,1.8619,1.8781,1.8787,1.8793,1.8817,1.8828,1.8838,0,0,0,0,0,0,1.8082,1.8148,1.8147,1.8243,1.8292,1.8352,1.8399,1.8399,1.8456,1.8451,1.8474,1.8489,1.8577,1.8607,1.8565,1.8715,1.8682,1.8692,1.8692,1.8703,1.8712,1.8703,1.8543,0,0,0,0,0,1.8097,1.8159,1.8213,1.8293,1.8318,1.8354,1.8391,1.8402,1.8454,1.8475,1.8514,1.8564,1.8626,1.8666,1.8726,1.8825,1.8838,1.8867,1.8876,1.8882,1.8891,1.8944,1.8958,1.8818,1.8818,1.8818,0,0,1.8129,1.8172,1.821,1.8298,1.8337,1.84,1.8372,1.844,1.8486,1.8485,1.857,1.8601,1.8658,1.8751,1.8795,1.8779,1.8933,1.8891,1.8896,1.8901,1.8952,1.8966,1.8977,1.8822,1.8821,1.8821,0,0,1.8218,1.8258,1.8329,1.8368,1.8428,1.8451,1.8468,1.8528,1.8548,1.8633,1.8633,1.8689,1.8796,1.8837,1.8871,1.8975,1.8972,1.8994,1.9039,1.9091,1.9102,1.9112,1.9148,1.9161,1.9003,1.9003,1.9003,0,1.825,1.8345,1.8365,1.8433,1.8471,1.8473,1.8544,1.8582,1.8658,1.8684,1.8666,1.8799,1.8838,1.894,1.8965,1.8994,1.9013,1.8987,1.9099,1.9109,1.9118,1.9153,1.9166,1.9005,1.9005,1.9005,1.9005,0,1.8381,1.8446,1.8496,1.8569,1.8613,1.8683,1.8713,1.8755,1.8762,1.8788,1.8874,1.8921,1.899,1.9015,1.9024,1.9119,1.9107,1.9094,1.906,1.9133,1.9166,1.918,1.9008,1.9008,1.9007,1.9006,0,0,1.8484,1.8567,1.8585,1.8618,1.8683,1.8734,1.8803,1.887,1.8906,1.8958,1.9016,1.9106,1.9093,1.9132,1.9145,1.919,1.9268,1.9171,1.9173,1.9187,1.9375,1.9384,1.9399,1.9267,1.9269,1.9272,1.937,0,1.858,1.8703,1.8723,1.883,1.8891,1.8892,1.8953,1.8999,1.9025,1.9079,1.9107,1.917,1.9149,1.9173,1.9218,1.9249,1.9306,1.9243,1.9321,1.9323,1.9305,1.9417,1.9427,1.9517,1.9383,1.9385,1.9387,0,1.8708,1.8763,1.8877,1.8933,1.8959,1.9013,1.9076,1.9128,1.9181,1.9196,1.9239,1.9246,1.9317,1.9281,1.9379,1.9335,1.9368,1.9389,1.9393,1.94,1.9359,1.9426,1.9547,1.956,1.9407,1.9406,1.9404,0,1.8771,1.8874,1.8955,1.8983,1.9051,1.9089,1.9119,1.9169,1.9207,1.9262,1.9287,1.9349,1.9383,1.9431,1.9455,1.9426,1.9551,1.9517,1.9565,1.9564,1.9591,1.9589,1.9717,1.9613,1.9613,1.9613,1.9612,0,1.8876,1.8945,1.8984,1.9034,1.9111,1.9133,1.9209,1.9238,1.9282,1.9337,1.9343,1.9394,1.9422,1.9478,1.9497,1.9574,1.959,1.9604,1.9608,1.9603,1.9601,1.9625,1.9619,1.9616,1.9615,1.9615,1.9614,0,1.8959,1.8988,1.9077,1.9134,1.915,1.9204,1.9252,1.9301,1.9325,1.9395,1.9413,1.9452,1.9517,1.9545,1.9626,1.9639,1.9727,1.9727,1.9709,1.9711,1.9757,1.9752,1.9904,1.9925,1.9808,1.9809,1.981,0,1.9023,1.9077,1.9139,1.9176,1.9208,1.9268,1.9307,1.933,1.9371,1.9434,1.9474,1.954,1.9593,1.9698,1.9733,1.9795,1.9796,1.9845,1.9805,1.9798,1.9795,1.9791,1.9796,1.9852,1.9853,1.9854,1.9855,0,1.9134,1.9146,1.9202,1.9264,1.9311,1.936,1.9409,1.9439,1.947,1.9515,1.9582,1.9623,1.9705,1.977,1.9833,1.9864,1.9864,1.9867,1.9881,1.9877,1.9864,1.987,1.9729,1.9863,1.9863,1.9862,1.9861,1.9861,1.921,1.9256,1.9308,1.937,1.9409,1.9454,1.9502,1.9532,1.9589,1.9657,1.9667,1.9739,1.9789,1.9874,1.9907,1.9962,1.995,1.9971,1.9976,1.9981,1.9983,1.9855,1.9974,1.9974,1.9974,1.9974,1.9973,0,1.932,1.9352,1.941,1.9477,1.9526,1.9523,1.9576,1.9617,1.9679,1.9726,1.9779,1.9855,1.9917,1.9957,2.002,2.0057,2.0059,2.0073,2.007,2.0077,1.9991,1.9972,2.007,2.007,2.007,2.007,2.007,2.007,1.9383,1.9462,1.9479,1.9577,1.961,1.9679,1.971,1.9751,1.9788,1.9873,1.9925,1.9951,1.9995,2.0061,2.0117,2.0128,2.015,2.0165,2.0174,2.0093,2.0083,2.0073,2.0055,2.017,2.017,2.0255,2.0256,2.0256]},{"header":{"parameterUnit":"m.s-1","parameterCategory":1,"la1":30.2991,"la2":30.254,"lo1":-89.0895,"lo2":-89.0444,"dy":0.0017,"dx":0.0017,"nx":28,"ny":28,"refTime":"2024-05-23T21:00:00:Z","depth":0,"parameterNumber":3,"parameterNumberName":"V-component_of_WINDS"},"data":[0,0,0,0,0,0,0,0,0,0,0,0,0,0,0,0,0,0,0,0,0,0,0,0,0,0,0,0,0,0,0,0,0,0,0,0,0,0,0,0,0,0,0,0,0,0,0,0,0,0,0,0,0,0,0,0,0,0,4.4787,4.4787,0,4.4846,4.4847,4.4847,4.4842,4.4841,4.4841,4.484,4.4895,4.4897,4.4899,0,0,0,0,0,0,0,0,0,0,0,0,0,4.4664,4.4666,4.4787,4.4788,4.4788,4.4846,4.4847,4.4847,4.4842,4.4841,4.484,4.4839,4.4894,4.4896,4.4899,0,0,0,0,0,0,0,0,0,0,0,0,0,4.472,4.4667,4.4787,4.4793,4.4794,4.4846,4.4847,4.4848,4.4843,4.4841,4.484,4.4839,4.4893,4.4896,4.49,4.4947,0,0,4.491,4.4911,0,0,0,0,0,0,0,0,4.4716,4.4724,4.4791,4.4793,4.4794,4.4836,4.4823,4.4881,4.4843,4.4824,4.484,4.4838,4.4876,4.488,4.4894,4.495,4.4952,4.491,4.4912,4.4914,4.4915,0,0,0,0,0,0,0,4.4713,4.4721,4.481,4.4792,4.4794,4.4791,4.4797,4.4834,4.4856,4.4826,4.4825,4.4833,4.4876,4.4891,4.4895,4.4953,4.491,4.4913,4.4915,4.4917,4.505,4.5052,0,0,0,0,0,0,4.4708,4.4718,4.4808,4.4812,4.4751,4.4794,4.4801,4.4823,4.4856,4.486,4.4834,4.4832,4.4886,4.4891,4.4897,4.4956,4.4914,4.4917,4.4919,4.5049,4.5051,4.5052,0,0,0,0,0,0,4.4706,4.4716,4.4806,4.4765,4.4776,4.4798,4.4822,4.4825,4.484,4.4862,4.4866,4.4845,4.4885,4.4892,4.4935,4.4957,4.4919,4.4922,4.5047,4.5049,4.5051,4.5072,0,0,0,0,0,0,4.4702,4.4715,4.4735,4.4766,4.4779,4.4844,4.4824,4.4827,4.4847,4.4845,4.4874,4.4877,4.4884,4.493,4.4939,4.4961,4.4924,4.5045,4.5048,4.5051,4.507,4.5075,4.5079,0,0,0,0,0,4.4698,4.4737,4.4736,4.4747,4.4804,4.4846,4.4853,4.4862,4.4849,4.4868,4.4882,4.4876,4.4954,4.4935,4.4944,4.4968,4.5044,4.5047,4.505,4.5067,4.5074,4.5079,0,0,0,0,0,0,4.4706,4.4741,4.474,4.4791,4.4816,4.4845,4.4869,4.4868,4.4896,4.4893,4.4901,4.4907,4.4951,4.4963,4.4942,4.5016,4.4997,4.5002,4.5006,4.5013,4.5017,4.5013,4.4927,0,0,0,0,0,4.4714,4.4747,4.4775,4.4817,4.483,4.4847,4.4866,4.4871,4.4896,4.4906,4.4923,4.4946,4.4975,4.4994,4.5023,4.5071,4.5077,4.5092,4.5097,4.5101,4.5106,4.5133,4.514,4.5063,4.5063,4.5063,0,0,4.473,4.4753,4.4773,4.4819,4.4839,4.4872,4.4856,4.4891,4.4915,4.491,4.4953,4.4966,4.4992,4.5038,4.5059,4.505,4.5128,4.5105,4.5108,4.5111,4.5137,4.5144,4.5151,4.5066,4.5065,4.5065,0,0,4.4777,4.4798,4.4836,4.4856,4.4887,4.4899,4.4908,4.4937,4.4947,4.499,4.4987,4.5015,4.5065,4.5084,4.51,4.5155,4.5151,4.5164,4.5189,4.5215,4.5221,4.5227,4.5247,4.5254,4.5168,4.5168,4.5168,0,4.4792,4.4844,4.4854,4.4891,4.4911,4.491,4.4948,4.4966,4.5004,4.5017,4.5007,4.5071,4.5088,4.5139,4.5153,4.5165,4.5175,4.5161,4.522,4.5225,4.5231,4.525,4.5257,4.517,4.5169,4.5169,4.5169,0,4.4861,4.4897,4.4923,4.4963,4.4985,4.5021,4.5037,4.5058,4.5061,4.5073,4.5116,4.5138,4.517,4.5183,4.5185,4.5234,4.5227,4.5218,4.5199,4.5239,4.5257,4.5264,4.5172,4.5171,4.5171,4.517,0,0,4.4915,4.4961,4.497,4.4988,4.5022,4.5049,4.5085,4.5119,4.5138,4.5163,4.5193,4.5236,4.5229,4.5247,4.5251,4.5274,4.5316,4.5262,4.5263,4.5272,4.5372,4.5379,4.5387,4.5314,4.5315,4.5316,4.537,0,4.4965,4.5032,4.5043,4.51,4.5133,4.5133,4.5164,4.5188,4.52,4.5228,4.5241,4.5272,4.5259,4.527,4.5293,4.5307,4.5337,4.5303,4.5341,4.5342,4.5335,4.5397,4.5404,4.5454,4.5377,4.5378,4.5379,0,4.5033,4.5064,4.5125,4.5156,4.517,4.5198,4.5231,4.5258,4.5284,4.5291,4.5313,4.5314,4.535,4.533,4.5379,4.5355,4.5371,4.538,4.5382,4.5387,4.5364,4.5403,4.547,4.5478,4.539,4.5389,4.5388,0,4.5067,4.5123,4.5167,4.5182,4.5219,4.5239,4.5255,4.528,4.53,4.5328,4.5341,4.5371,4.5388,4.5411,4.542,4.5404,4.5469,4.5449,4.5475,4.5475,4.5489,4.5489,4.556,4.5499,4.5499,4.5498,4.5498,0,4.5123,4.516,4.5183,4.521,4.5252,4.5264,4.5304,4.5319,4.5342,4.5371,4.5371,4.5398,4.5409,4.5437,4.5444,4.5484,4.5491,4.5497,4.5499,4.5498,4.5497,4.5509,4.5506,4.55,4.55,4.55,4.5499,0,4.5167,4.5184,4.5233,4.5264,4.5273,4.5303,4.5329,4.5354,4.5367,4.5403,4.5413,4.5431,4.5464,4.5476,4.5516,4.5521,4.5567,4.5565,4.5559,4.556,4.5586,4.5584,4.5668,4.568,4.561,4.561,4.5611,0,4.5202,4.5232,4.5267,4.5288,4.5306,4.5338,4.536,4.5371,4.5393,4.5426,4.5447,4.5481,4.5509,4.5561,4.5577,4.5607,4.5607,4.5634,4.5611,4.5609,4.5608,4.5607,4.561,4.5639,4.5639,4.564,4.564,0,4.5263,4.527,4.5302,4.5337,4.5363,4.539,4.5417,4.5433,4.5448,4.5472,4.5508,4.5529,4.5571,4.5604,4.5635,4.5649,4.5647,4.5648,4.5656,4.5655,4.5651,4.5654,4.5572,4.5646,4.5645,4.5645,4.5644,4.5644,4.5304,4.5331,4.5361,4.5396,4.5418,4.5443,4.5469,4.5486,4.5516,4.5552,4.5557,4.5595,4.5619,4.5662,4.5677,4.5706,4.5698,4.5709,4.5712,4.5715,4.5718,4.5646,4.5711,4.5711,4.5711,4.5711,4.5711,0,4.5366,4.5385,4.5418,4.5456,4.5484,4.5482,4.5511,4.5533,4.5568,4.5592,4.562,4.566,4.5693,4.5712,4.5744,4.5763,4.5763,4.5771,4.577,4.5773,4.5722,4.5713,4.577,4.577,4.577,4.577,4.577,4.577,4.5401,4.5446,4.5457,4.5513,4.5531,4.557,4.5587,4.561,4.563,4.5676,4.5704,4.5716,4.5738,4.5772,4.5801,4.5806,4.5818,4.5827,4.5831,4.5783,4.5777,4.5771,4.5762,4.5829,4.5829,4.5879,4.588,4.588]}]]